[[{"header":{"parameterUnit":"m.s-1","parameterCategory":1,"la1":30.2991,"la2":30.254,"lo1":-89.0895,"lo2":-89.0444,"dy":0.0017,"dx":0.0017,"nx":28,"ny":28,"refTime":"2024-10-17T09:00:00:Z","depth":0,"parameterNumber":2,"parameterNumberName":"U-component_of_WINDS"},"data":[0,0,0,0,0,0,0,0,0,0,0,0,0,0,0,0,0,0,0,0,0,0,0,0,0,0,0,0,0,0,0,0,0,0,0,0,0,0,0,0,0,0,0,0,0,0,0,0,0,0,0,0,0,0,0,0,0,0,-4.664,-4.664,0,-4.6697,-4.6698,-4.6698,-4.6522,-4.6516,-4.6511,-4.6506,-4.6568,-4.6575,-4.6581,0,0,0,0,0,0,0,0,0,0,0,0,0,-4.6379,-4.6385,-4.664,-4.664,-4.6641,-4.6697,-4.6698,-4.6699,-4.6522,-4.6516,-4.6509,-4.6503,-4.6566,-4.6574,-4.6582,0,0,0,0,0,0,0,0,0,0,0,0,0,-4.647,-4.6387,-4.664,-4.656,-4.6553,-4.6697,-4.6698,-4.6699,-4.6524,-4.6516,-4.6508,-4.65,-4.6563,-4.6573,-4.6583,-4.6807,0,0,-4.6614,-4.6618,0,0,0,0,0,0,0,0,-4.6465,-4.648,-4.6571,-4.6566,-4.6559,-4.6594,-4.6629,-4.6735,-4.6526,-4.6535,-4.6505,-4.6496,-4.6583,-4.6591,-4.662,-4.681,-4.6813,-4.6614,-4.6621,-4.6625,-4.6628,0,0,0,0,0,0,0,-4.6459,-4.6477,-4.6662,-4.6572,-4.6565,-4.6522,-4.6526,-4.6648,-4.6604,-4.6534,-4.6521,-4.653,-4.6578,-4.6611,-4.662,-4.6814,-4.6614,-4.6623,-4.6629,-4.6633,-4.719,-4.7198,0,0,0,0,0,0,-4.6463,-4.6473,-4.6661,-4.6664,-4.6491,-4.6533,-4.6537,-4.6591,-4.6602,-4.6596,-4.6537,-4.6522,-4.6598,-4.6609,-4.6622,-4.6884,-4.6625,-4.6634,-4.664,-4.7181,-4.7191,-4.7201,0,0,0,0,0,0,-4.6458,-4.6481,-4.6658,-4.6565,-4.6584,-4.6546,-4.6607,-4.6596,-4.6628,-4.6605,-4.6596,-4.6578,-4.6592,-4.6607,-4.6762,-4.6884,-4.6639,-4.6648,-4.7171,-4.7184,-4.7196,-4.7413,0,0,0,0,0,0,-4.6451,-4.6481,-4.6565,-4.6568,-4.659,-4.6798,-4.6615,-4.6603,-4.6645,-4.6626,-4.6641,-4.6636,-4.6586,-4.6748,-4.6772,-4.6894,-4.6656,-4.7159,-4.7177,-4.7192,-4.7395,-4.7432,-4.7463,0,0,0,0,0,-4.6443,-4.6625,-4.6571,-4.6594,-4.6695,-4.6805,-4.6818,-4.6756,-4.6656,-4.6741,-4.6726,-4.6635,-4.6867,-4.6765,-4.6791,-4.6917,-4.7151,-4.7172,-4.7191,-4.7379,-4.7424,-4.7463,0,0,0,0,0,0,-4.6639,-4.6624,-4.6563,-4.6752,-4.6781,-4.6775,-4.688,-4.6806,-4.6866,-4.6845,-4.6767,-4.6772,-4.6941,-4.6944,-4.6831,-4.7134,-4.6992,-4.7018,-4.7126,-4.7169,-4.7203,-4.7199,-4.6664,0,0,0,0,0,-4.6704,-4.6795,-4.6776,-4.6945,-4.6962,-4.692,-4.6965,-4.6915,-4.6943,-4.6954,-4.695,-4.6981,-4.706,-4.7115,-4.7187,-4.7394,-4.7394,-4.7493,-4.7528,-4.7556,-4.758,-4.7689,-4.7732,-4.7266,-4.7265,-4.7265,0,0,-4.684,-4.6843,-4.6905,-4.6984,-4.7001,-4.7097,-4.6931,-4.7039,-4.711,-4.6971,-4.7116,-4.7115,-4.7144,-4.7325,-4.7405,-4.7333,-4.7708,-4.7581,-4.7604,-4.7612,-4.7713,-4.7758,-4.7797,-4.7279,-4.7276,-4.7274,0,0,-4.7137,-4.7148,-4.7289,-4.7308,-4.7335,-4.7305,-4.7339,-4.7344,-4.7337,-4.7481,-4.7379,-4.7461,-4.76,-4.7625,-4.7656,-4.796,-4.7879,-4.7986,-4.8166,-4.8273,-4.831,-4.8342,-4.8451,-4.8491,-4.8009,-4.801,-4.801,0,-4.7303,-4.7442,-4.7371,-4.7486,-4.7524,-4.7401,-4.7543,-4.7566,-4.7616,-4.7645,-4.7563,-4.7733,-4.7745,-4.793,-4.8004,-4.8033,-4.807,-4.7984,-4.831,-4.8342,-4.8371,-4.8474,-4.8515,-4.8022,-4.8021,-4.8019,-4.8018,0,-4.7645,-4.7743,-4.7853,-4.7903,-4.7953,-4.8082,-4.803,-4.8089,-4.8035,-4.8014,-4.8162,-4.817,-4.8241,-4.8281,-4.823,-4.846,-4.8414,-4.8323,-4.8179,-4.843,-4.8525,-4.8564,-4.8041,-4.8036,-4.8032,-4.8029,0,0,-4.8069,-4.8075,-4.8117,-4.8137,-4.8157,-4.8232,-4.8355,-4.8422,-4.8475,-4.8513,-4.8614,-4.8733,-4.8648,-4.8684,-4.8634,-4.8728,-4.8968,-4.8624,-4.8624,-4.8688,-4.9222,-4.9291,-4.9338,-4.8914,-4.8921,-4.8927,-4.9219,0,-4.836,-4.8569,-4.8508,-4.8718,-4.8808,-4.8691,-4.8798,-4.8822,-4.8805,-4.8879,-4.886,-4.8946,-4.8828,-4.8848,-4.8936,-4.8921,-4.9075,-4.8898,-4.9008,-4.9013,-4.9005,-4.9387,-4.9461,-4.9737,-4.9256,-4.9263,-4.9267,0,-4.8729,-4.878,-4.8999,-4.9002,-4.9037,-4.9134,-4.9191,-4.9263,-4.9288,-4.9269,-4.9308,-4.9238,-4.9358,-4.9213,-4.9378,-4.926,-4.9301,-4.93,-4.9309,-4.9318,-4.9156,-4.9407,-4.9823,-4.9865,-4.9325,-4.932,-4.9316,0,-4.9016,-4.914,-4.9286,-4.9307,-4.9315,-4.9385,-4.9392,-4.9408,-4.9453,-4.9503,-4.9531,-4.9595,-4.9631,-4.9682,-4.9632,-4.953,-4.9805,-4.9655,-4.9793,-4.9795,-4.9857,-4.9854,-5.0287,-4.9884,-4.9883,-4.9882,-4.9881,0,-4.9349,-4.9488,-4.9415,-4.9505,-4.9657,-4.9585,-4.9737,-4.9731,-4.9746,-4.9833,-4.9737,-4.9821,-4.9749,-4.9827,-4.9788,-4.9931,-4.9948,-4.9936,-4.9924,-4.9945,-4.9947,-4.9972,-4.9952,-4.9893,-4.9891,-4.9889,-4.9887,0,-4.9696,-4.9653,-4.9805,-4.9799,-4.98,-4.9913,-4.9908,-4.9991,-4.9966,-5.0078,-5.01,-5.0062,-5.0149,-5.0103,-5.0193,-5.0167,-5.0352,-5.0314,-5.0344,-5.0334,-5.0475,-5.0462,-5.0939,-5.0998,-5.0557,-5.0561,-5.0565,0,-4.9912,-5.0015,-5.002,-5.007,-5.0083,-5.0167,-5.0211,-5.0144,-5.0194,-5.0229,-5.0309,-5.0387,-5.0445,-5.0589,-5.057,-5.0639,-5.0602,-5.0764,-5.0612,-5.0629,-5.0604,-5.0599,-5.0609,-5.0795,-5.08,-5.0805,-5.0808,0,-5.0299,-5.0272,-5.0338,-5.0399,-5.0454,-5.0498,-5.0534,-5.0582,-5.0515,-5.0577,-5.0663,-5.0709,-5.0799,-5.0878,-5.0937,-5.0944,-5.0866,-5.0856,-5.0891,-5.0914,-5.0927,-5.0922,-5.0428,-5.0846,-5.0842,-5.0839,-5.0837,-5.0835,-5.0586,-5.0672,-5.0689,-5.0767,-5.0786,-5.0822,-5.09,-5.0884,-5.0955,-5.1022,-5.0979,-5.1081,-5.1102,-5.1172,-5.1189,-5.1268,-5.1203,-5.1255,-5.1268,-5.1282,-5.1301,-5.0914,-5.1279,-5.1278,-5.1276,-5.1276,-5.1275,0,-5.0968,-5.0972,-5.1044,-5.1097,-5.1159,-5.1078,-5.1113,-5.117,-5.1261,-5.1286,-5.1345,-5.1445,-5.152,-5.1507,-5.1575,-5.1641,-5.1607,-5.1662,-5.1656,-5.1659,-5.1355,-5.1318,-5.1688,-5.1688,-5.1688,-5.1688,-5.1688,-5.1688,-5.1174,-5.1315,-5.129,-5.1441,-5.1443,-5.1542,-5.1569,-5.1601,-5.1621,-5.1736,-5.1798,-5.1787,-5.1798,-5.1866,-5.1932,-5.1925,-5.1956,-5.2024,-5.2005,-5.1722,-5.1681,-5.1642,-5.1606,-5.2031,-5.2031,-5.2302,-5.2304,-5.2306]},{"header":{"parameterUnit":"m.s-1","parameterCategory":1,"la1":30.2991,"la2":30.254,"lo1":-89.0895,"lo2":-89.0444,"dy":0.0017,"dx":0.0017,"nx":28,"ny":28,"refTime":"2024-10-17T09:00:00:Z","depth":0,"parameterNumber":3,"parameterNumberName":"V-component_of_WINDS"},"data":[0,0,0,0,0,0,0,0,0,0,0,0,0,0,0,0,0,0,0,0,0,0,0,0,0,0,0,0,0,0,0,0,0,0,0,0,0,0,0,0,0,0,0,0,0,0,0,0,0,0,0,0,0,0,0,0,0,0,-2.4827,-2.4828,0,-2.4834,-2.4834,-2.4835,-2.4838,-2.4838,-2.4838,-2.4838,-2.4844,-2.4844,-2.4844,0,0,0,0,0,0,0,0,0,0,0,0,0,-2.4814,-2.4814,-2.4827,-2.4828,-2.4828,-2.4834,-2.4834,-2.4835,-2.4838,-2.4838,-2.4838,-2.4838,-2.4844,-2.4844,-2.4844,0,0,0,0,0,0,0,0,0,0,0,0,0,-2.482,-2.4814,-2.4827,-2.483,-2.4831,-2.4834,-2.4834,-2.4835,-2.4838,-2.4838,-2.4838,-2.4838,-2.4844,-2.4844,-2.4844,-2.4845,0,0,-2.4845,-2.4845,0,0,0,0,0,0,0,0,-2.482,-2.4821,-2.483,-2.483,-2.483,-2.4835,-2.4832,-2.4838,-2.4838,-2.4835,-2.4838,-2.4838,-2.4841,-2.4841,-2.4842,-2.4845,-2.4845,-2.4845,-2.4845,-2.4845,-2.4845,0,0,0,0,0,0,0,-2.4819,-2.482,-2.483,-2.483,-2.483,-2.483,-2.4831,-2.4833,-2.4838,-2.4836,-2.4836,-2.4837,-2.4841,-2.4842,-2.4843,-2.4845,-2.4845,-2.4845,-2.4845,-2.4845,-2.4846,-2.4846,0,0,0,0,0,0,-2.4819,-2.482,-2.483,-2.483,-2.4825,-2.483,-2.4831,-2.4834,-2.4838,-2.4838,-2.4837,-2.4837,-2.4842,-2.4842,-2.4843,-2.4842,-2.4845,-2.4845,-2.4845,-2.4846,-2.4846,-2.4846,0,0,0,0,0,0,-2.4819,-2.482,-2.483,-2.4825,-2.4826,-2.4831,-2.4833,-2.4834,-2.4835,-2.4839,-2.4839,-2.4837,-2.4842,-2.4843,-2.4844,-2.4843,-2.4845,-2.4845,-2.4846,-2.4846,-2.4846,-2.4843,0,0,0,0,0,0,-2.4818,-2.482,-2.4821,-2.4825,-2.4827,-2.4832,-2.4833,-2.4834,-2.4836,-2.4836,-2.4839,-2.484,-2.4842,-2.4843,-2.4844,-2.4843,-2.4845,-2.4847,-2.4846,-2.4846,-2.4843,-2.4843,-2.4842,0,0,0,0,0,-2.4818,-2.482,-2.4821,-2.4822,-2.4829,-2.4832,-2.4832,-2.4835,-2.4836,-2.4836,-2.4838,-2.484,-2.4843,-2.4844,-2.4844,-2.4843,-2.4847,-2.4846,-2.4846,-2.4843,-2.4843,-2.4842,0,0,0,0,0,0,-2.4816,-2.4821,-2.4822,-2.4826,-2.4828,-2.4832,-2.4833,-2.4835,-2.4837,-2.4837,-2.484,-2.484,-2.4841,-2.4842,-2.4843,-2.4843,-2.4845,-2.4845,-2.4842,-2.4842,-2.4841,-2.4841,-2.4846,0,0,0,0,0,-2.4816,-2.4818,-2.4822,-2.4825,-2.4826,-2.4829,-2.4831,-2.4833,-2.4835,-2.4836,-2.4838,-2.4839,-2.484,-2.4841,-2.4843,-2.4843,-2.4843,-2.4843,-2.4842,-2.4842,-2.4841,-2.484,-2.4839,-2.4846,-2.4846,-2.4846,0,0,-2.4816,-2.4819,-2.482,-2.4825,-2.4827,-2.4828,-2.483,-2.4833,-2.4833,-2.4836,-2.4837,-2.4838,-2.484,-2.484,-2.4841,-2.4842,-2.4839,-2.4841,-2.4841,-2.4841,-2.4839,-2.4839,-2.4838,-2.4845,-2.4845,-2.4845,0,0,-2.4816,-2.482,-2.4821,-2.4823,-2.4826,-2.4828,-2.4828,-2.4831,-2.4832,-2.4833,-2.4835,-2.4835,-2.4837,-2.4838,-2.4838,-2.4836,-2.4837,-2.4837,-2.4834,-2.4833,-2.4832,-2.4831,-2.4829,-2.4829,-2.4836,-2.4836,-2.4836,0,-2.4816,-2.4819,-2.4822,-2.4824,-2.4824,-2.4827,-2.4828,-2.4829,-2.4832,-2.4832,-2.4833,-2.4834,-2.4836,-2.4835,-2.4834,-2.4835,-2.4834,-2.4836,-2.4832,-2.4831,-2.4831,-2.4829,-2.4828,-2.4836,-2.4836,-2.4836,-2.4836,0,-2.4817,-2.4819,-2.482,-2.4823,-2.4824,-2.4825,-2.4827,-2.4827,-2.4828,-2.4829,-2.4829,-2.483,-2.4831,-2.4831,-2.4833,-2.483,-2.483,-2.4832,-2.4833,-2.483,-2.4828,-2.4827,-2.4836,-2.4836,-2.4836,-2.4836,0,0,-2.4819,-2.4821,-2.4821,-2.4821,-2.4823,-2.4824,-2.4824,-2.4825,-2.4825,-2.4826,-2.4825,-2.4826,-2.4826,-2.4827,-2.4828,-2.4826,-2.4822,-2.4828,-2.4828,-2.4825,-2.4818,-2.4816,-2.4815,-2.4823,-2.4823,-2.4823,-2.4817,0,-2.4819,-2.482,-2.4821,-2.4821,-2.4822,-2.4823,-2.4823,-2.4823,-2.4823,-2.4823,-2.4823,-2.4823,-2.4825,-2.4825,-2.4823,-2.4823,-2.4821,-2.4824,-2.4821,-2.4821,-2.482,-2.4814,-2.4813,-2.4808,-2.4816,-2.4816,-2.4816,0,-2.482,-2.482,-2.482,-2.482,-2.482,-2.482,-2.482,-2.482,-2.4819,-2.4819,-2.4819,-2.482,-2.4818,-2.482,-2.4817,-2.4819,-2.4817,-2.4817,-2.4817,-2.4816,-2.4818,-2.4813,-2.4806,-2.4805,-2.4815,-2.4815,-2.4815,0,-2.4818,-2.4819,-2.4819,-2.4819,-2.4819,-2.4819,-2.4819,-2.4818,-2.4818,-2.4817,-2.4816,-2.4815,-2.4814,-2.4813,-2.4813,-2.4814,-2.4809,-2.4811,-2.4808,-2.4808,-2.4807,-2.4806,-2.4799,-2.4807,-2.4807,-2.4807,-2.4807,0,-2.4818,-2.4818,-2.4818,-2.4818,-2.4816,-2.4817,-2.4816,-2.4816,-2.4815,-2.4813,-2.4814,-2.4812,-2.4813,-2.4811,-2.481,-2.4807,-2.4807,-2.4806,-2.4805,-2.4805,-2.4805,-2.4804,-2.4804,-2.4807,-2.4807,-2.4807,-2.4807,0,-2.4817,-2.4817,-2.4816,-2.4816,-2.4816,-2.4815,-2.4814,-2.4813,-2.4812,-2.481,-2.481,-2.4809,-2.4807,-2.4806,-2.4803,-2.4803,-2.4798,-2.4799,-2.4798,-2.4798,-2.4794,-2.4794,-2.4785,-2.4783,-2.4794,-2.4793,-2.4793,0,-2.4816,-2.4816,-2.4815,-2.4814,-2.4814,-2.4813,-2.4812,-2.4811,-2.481,-2.4808,-2.4807,-2.4804,-2.4802,-2.4798,-2.4796,-2.4793,-2.4793,-2.479,-2.4793,-2.4792,-2.4792,-2.4791,-2.479,-2.479,-2.479,-2.4789,-2.4789,0,-2.4815,-2.4814,-2.4813,-2.4812,-2.481,-2.4809,-2.4808,-2.4807,-2.4806,-2.4804,-2.4802,-2.48,-2.4796,-2.4793,-2.4789,-2.4788,-2.4788,-2.4788,-2.4787,-2.4787,-2.4786,-2.4785,-2.4796,-2.4789,-2.4789,-2.4789,-2.4789,-2.4789,-2.4813,-2.4812,-2.481,-2.4809,-2.4807,-2.4805,-2.4804,-2.4802,-2.48,-2.4797,-2.4797,-2.4793,-2.4791,-2.4786,-2.4784,-2.4781,-2.4781,-2.478,-2.478,-2.4779,-2.4778,-2.4787,-2.478,-2.478,-2.478,-2.478,-2.478,0,-2.4811,-2.4809,-2.4807,-2.4805,-2.4803,-2.4803,-2.4801,-2.4799,-2.4795,-2.4793,-2.479,-2.4786,-2.4782,-2.478,-2.4776,-2.4773,-2.4773,-2.4772,-2.4772,-2.4771,-2.4778,-2.4779,-2.4772,-2.4772,-2.4772,-2.4772,-2.4772,-2.4772,-2.4809,-2.4806,-2.4805,-2.4801,-2.4799,-2.4796,-2.4794,-2.4792,-2.479,-2.4785,-2.4781,-2.478,-2.4777,-2.4772,-2.4768,-2.4767,-2.4765,-2.4764,-2.4763,-2.477,-2.4771,-2.4772,-2.4772,-2.4764,-2.4764,-2.4756,-2.4756,-2.4756]}]]